owner,sensor,date,latitude,longitude,vertical_datum,mass_concentration_of_oxygen_in_sea_water,qcFlag 
DISL,ioos:station:DISL:DISL:1,2016-12-01T00:00:00Z,30.2513,-88.0778,2.203,7.73,1111122 
DISL,ioos:station:DISL:DISL:1,2016-12-01T00:30:00Z,30.2513,-88.0778,2.217,7.75,1111122 
DISL,ioos:station:DISL:DISL:1,2016-12-01T01:00:00Z,30.2513,-88.0778,2.23,7.71,1111122 
DISL,ioos:station:DISL:DISL:1,2016-12-01T01:30:00Z,30.2513,-88.0778,2.267,7.66,1111122 
DISL,ioos:station:DISL:DISL:1,2016-12-01T02:00:00Z,30.2513,-88.0778,2.326,7.66,1111122 
DISL,ioos:station:DISL:DISL:1,2016-12-01T02:30:00Z,30.2513,-88.0778,2.329,7.63,1111122 
DISL,ioos:station:DISL:DISL:1,2016-12-01T03:00:00Z,30.2513,-88.0778,2.344,7.61,1111122 
DISL,ioos:station:DISL:DISL:1,2016-12-01T03:30:00Z,30.2513,-88.0778,2.333,7.54,1111122 
DISL,ioos:station:DISL:DISL:1,2016-12-01T04:00:00Z,30.2513,-88.0778,2.325,7.53,1111122 
DISL,ioos:station:DISL:DISL:1,2016-12-01T04:30:00Z,30.2513,-88.0778,2.333,7.53,1111122 
DISL,ioos:station:DISL:DISL:1,2016-12-01T05:00:00Z,30.2513,-88.0778,2.323,7.5,1111122 
DISL,ioos:station:DISL:DISL:1,2016-12-01T05:30:00Z,30.2513,-88.0778,2.335,7.49,1111122 
DISL,ioos:station:DISL:DISL:1,2016-12-01T06:30:00Z,30.2513,-88.0778,2.315,7.48,1111122 
DISL,ioos:station:DISL:DISL:1,2016-12-01T07:00:00Z,30.2513,-88.0778,2.303,7.48,1111122 
DISL,ioos:station:DISL:DISL:1,2016-12-01T07:30:00Z,30.2513,-88.0778,2.271,7.49,1111122 
DISL,ioos:station:DISL:DISL:1,2016-12-01T08:00:00Z,30.2513,-88.0778,2.247,7.46,1111122 
DISL,ioos:station:DISL:DISL:1,2016-12-01T08:30:00Z,30.2513,-88.0778,2.208,7.47,1111122 
DISL,ioos:station:DISL:DISL:1,2016-12-01T09:00:00Z,30.2513,-88.0778,2.163,7.61,1111122 
DISL,ioos:station:DISL:DISL:1,2016-12-01T09:30:00Z,30.2513,-88.0778,2.119,7.62,1111122 
DISL,ioos:station:DISL:DISL:1,2016-12-01T10:00:00Z,30.2513,-88.0778,2.088,7.56,1111122 
DISL,ioos:station:DISL:DISL:1,2016-12-01T10:30:00Z,30.2513,-88.0778,2.012,7.62,1111122 
DISL,ioos:station:DISL:DISL:1,2016-12-01T11:00:00Z,30.2513,-88.0778,2.052,7.68,1111122 
DISL,ioos:station:DISL:DISL:1,2016-12-01T11:30:00Z,30.2513,-88.0778,2.025,7.73,1111122 
DISL,ioos:station:DISL:DISL:1,2016-12-01T12:00:00Z,30.2513,-88.0778,2.089,7.74,1111122 
DISL,ioos:station:DISL:DISL:1,2016-12-01T12:30:00Z,30.2513,-88.0778,1.966,7.76,1111122 
DISL,ioos:station:DISL:DISL:1,2016-12-01T13:00:00Z,30.2513,-88.0778,1.934,7.79,1111122 
DISL,ioos:station:DISL:DISL:1,2016-12-01T13:30:00Z,30.2513,-88.0778,1.902,7.77,1111122 
DISL,ioos:station:DISL:DISL:1,2016-12-01T14:00:00Z,30.2513,-88.0778,1.925,7.79,1111122 
DISL,ioos:station:DISL:DISL:1,2016-12-01T14:30:00Z,30.2513,-88.0778,1.892,7.79,1111122 
DISL,ioos:station:DISL:DISL:1,2016-12-01T15:00:00Z,30.2513,-88.0778,1.78,7.81,1111122 
DISL,ioos:station:DISL:DISL:1,2016-12-01T15:30:00Z,30.2513,-88.0778,1.881,7.81,1111122 
DISL,ioos:station:DISL:DISL:1,2016-12-01T16:00:00Z,30.2513,-88.0778,1.872,7.87,1111122 
DISL,ioos:station:DISL:DISL:1,2016-12-01T16:30:00Z,30.2513,-88.0778,1.879,7.84,1111122 
DISL,ioos:station:DISL:DISL:1,2016-12-01T17:00:00Z,30.2513,-88.0778,1.883,7.9,1111122 
DISL,ioos:station:DISL:DISL:1,2016-12-01T17:30:00Z,30.2513,-88.0778,1.893,7.88,1111122 
DISL,ioos:station:DISL:DISL:1,2016-12-01T18:00:00Z,30.2513,-88.0778,1.907,7.97,1111122 
DISL,ioos:station:DISL:DISL:1,2016-12-01T18:30:00Z,30.2513,-88.0778,1.93,8.0,1111122 
DISL,ioos:station:DISL:DISL:1,2016-12-01T19:00:00Z,30.2513,-88.0778,1.937,8.06,1111122 
DISL,ioos:station:DISL:DISL:1,2016-12-01T19:30:00Z,30.2513,-88.0778,1.924,8.09,1111122 
DISL,ioos:station:DISL:DISL:1,2016-12-01T20:00:00Z,30.2513,-88.0778,1.972,8.08,1111122 
DISL,ioos:station:DISL:DISL:1,2016-12-01T20:30:00Z,30.2513,-88.0778,1.983,8.19,1111122 
DISL,ioos:station:DISL:DISL:1,2016-12-01T21:00:00Z,30.2513,-88.0778,1.993,8.34,1111122 
DISL,ioos:station:DISL:DISL:1,2016-12-01T21:30:00Z,30.2513,-88.0778,2.01,8.56,1111122 
DISL,ioos:station:DISL:DISL:1,2016-12-01T22:00:00Z,30.2513,-88.0778,2.018,8.58,1111122 
DISL,ioos:station:DISL:DISL:1,2016-12-01T22:30:00Z,30.2513,-88.0778,2.048,8.61,1111122 
DISL,ioos:station:DISL:DISL:1,2016-12-01T23:00:00Z,30.2513,-88.0778,2.075,8.67,1111122 
DISL,ioos:station:DISL:DISL:1,2016-12-01T23:30:00Z,30.2513,-88.0778,2.102,8.6,1111122 
DISL,ioos:station:DISL:DISL:1,2016-12-02T00:00:00Z,30.2513,-88.0778,2.119,8.57,1111122 
DISL,ioos:station:DISL:DISL:1,2016-12-02T00:30:00Z,30.2513,-88.0778,2.134,8.57,1111122 
DISL,ioos:station:DISL:DISL:1,2016-12-02T01:00:00Z,30.2513,-88.0778,2.162,8.3,1111122 
DISL,ioos:station:DISL:DISL:1,2016-12-02T01:30:00Z,30.2513,-88.0778,2.213,7.44,1111122 
DISL,ioos:station:DISL:DISL:1,2016-12-02T02:00:00Z,30.2513,-88.0778,2.205,7.12,1111122 
DISL,ioos:station:DISL:DISL:1,2016-12-02T02:30:00Z,30.2513,-88.0778,2.204,7.15,1111122 
DISL,ioos:station:DISL:DISL:1,2016-12-02T03:00:00Z,30.2513,-88.0778,2.231,7.56,1111122 
DISL,ioos:station:DISL:DISL:1,2016-12-02T03:30:00Z,30.2513,-88.0778,2.229,7.68,1111122 
DISL,ioos:station:DISL:DISL:1,2016-12-02T04:00:00Z,30.2513,-88.0778,2.252,8.37,1111122 
DISL,ioos:station:DISL:DISL:1,2016-12-02T04:30:00Z,30.2513,-88.0778,2.247,8.37,1111122 
DISL,ioos:station:DISL:DISL:1,2016-12-02T05:00:00Z,30.2513,-88.0778,2.248,8.38,1111122 
DISL,ioos:station:DISL:DISL:1,2016-12-02T05:30:00Z,30.2513,-88.0778,2.291,8.31,1111122 
DISL,ioos:station:DISL:DISL:1,2016-12-02T06:30:00Z,30.2513,-88.0778,2.201,8.28,1111122 
DISL,ioos:station:DISL:DISL:1,2016-12-02T07:00:00Z,30.2513,-88.0778,2.177,8.04,1111122 
DISL,ioos:station:DISL:DISL:1,2016-12-02T07:30:00Z,30.2513,-88.0778,2.171,7.97,1111122 
DISL,ioos:station:DISL:DISL:1,2016-12-02T08:00:00Z,30.2513,-88.0778,2.132,7.91,1111122 
DISL,ioos:station:DISL:DISL:1,2016-12-02T08:30:00Z,30.2513,-88.0778,2.112,7.88,1111122 
DISL,ioos:station:DISL:DISL:1,2016-12-02T09:00:00Z,30.2513,-88.0778,2.05,7.88,1111122 
DISL,ioos:station:DISL:DISL:1,2016-12-02T09:30:00Z,30.2513,-88.0778,2.039,7.89,1111122 
DISL,ioos:station:DISL:DISL:1,2016-12-02T10:00:00Z,30.2513,-88.0778,1.99,7.93,1111122 
DISL,ioos:station:DISL:DISL:1,2016-12-02T10:30:00Z,30.2513,-88.0778,1.979,7.99,1111122 
DISL,ioos:station:DISL:DISL:1,2016-12-02T11:00:00Z,30.2513,-88.0778,1.939,8.05,1111122 
DISL,ioos:station:DISL:DISL:1,2016-12-02T11:30:00Z,30.2513,-88.0778,1.938,8.1,1111122 
DISL,ioos:station:DISL:DISL:1,2016-12-02T12:00:00Z,30.2513,-88.0778,1.805,8.14,1111122 
DISL,ioos:station:DISL:DISL:1,2016-12-02T12:30:00Z,30.2513,-88.0778,1.858,8.03,1111122 
DISL,ioos:station:DISL:DISL:1,2016-12-02T13:00:00Z,30.2513,-88.0778,1.841,8.01,1111122 
DISL,ioos:station:DISL:DISL:1,2016-12-02T13:30:00Z,30.2513,-88.0778,1.822,8.07,1111122 
DISL,ioos:station:DISL:DISL:1,2016-12-02T14:00:00Z,30.2513,-88.0778,1.783,8.11,1111122 
DISL,ioos:station:DISL:DISL:1,2016-12-02T14:30:00Z,30.2513,-88.0778,1.878,8.15,1111122 
DISL,ioos:station:DISL:DISL:1,2016-12-02T15:00:00Z,30.2513,-88.0778,1.796,8.19,1111122 
DISL,ioos:station:DISL:DISL:1,2016-12-02T15:30:00Z,30.2513,-88.0778,1.786,8.22,1111122 
DISL,ioos:station:DISL:DISL:1,2016-12-02T16:00:00Z,30.2513,-88.0778,1.749,8.18,1111122 
DISL,ioos:station:DISL:DISL:1,2016-12-02T16:30:00Z,30.2513,-88.0778,1.782,8.21,1111122 
DISL,ioos:station:DISL:DISL:1,2016-12-02T17:00:00Z,30.2513,-88.0778,1.78,8.22,1111122 
DISL,ioos:station:DISL:DISL:1,2016-12-02T17:30:00Z,30.2513,-88.0778,1.784,8.23,1111122 
DISL,ioos:station:DISL:DISL:1,2016-12-02T18:00:00Z,30.2513,-88.0778,1.76,8.07,1111122 
DISL,ioos:station:DISL:DISL:1,2016-12-02T18:30:00Z,30.2513,-88.0778,1.784,7.97,1111122 
DISL,ioos:station:DISL:DISL:1,2016-12-02T19:00:00Z,30.2513,-88.0778,1.817,8.09,1111122 
DISL,ioos:station:DISL:DISL:1,2016-12-02T19:30:00Z,30.2513,-88.0778,1.827,8.03,1111122 
DISL,ioos:station:DISL:DISL:1,2016-12-02T20:00:00Z,30.2513,-88.0778,1.839,8.11,1111122 
DISL,ioos:station:DISL:DISL:1,2016-12-02T20:30:00Z,30.2513,-88.0778,1.857,8.12,1111122 
DISL,ioos:station:DISL:DISL:1,2016-12-02T21:00:00Z,30.2513,-88.0778,1.867,8.22,1111122 
DISL,ioos:station:DISL:DISL:1,2016-12-02T21:30:00Z,30.2513,-88.0778,1.919,8.28,1111122 
DISL,ioos:station:DISL:DISL:1,2016-12-02T22:00:00Z,30.2513,-88.0778,1.936,8.29,1111122 
DISL,ioos:station:DISL:DISL:1,2016-12-02T22:30:00Z,30.2513,-88.0778,1.944,8.31,1111122 
DISL,ioos:station:DISL:DISL:1,2016-12-02T23:00:00Z,30.2513,-88.0778,1.957,8.33,1111122 
DISL,ioos:station:DISL:DISL:1,2016-12-02T23:30:00Z,30.2513,-88.0778,1.985,8.35,1111122 
DISL,ioos:station:DISL:DISL:1,2016-12-03T00:00:00Z,30.2513,-88.0778,2.034,8.37,1111122 
DISL,ioos:station:DISL:DISL:1,2016-12-03T00:30:00Z,30.2513,-88.0778,2.043,8.48,1111122 
DISL,ioos:station:DISL:DISL:1,2016-12-03T01:00:00Z,30.2513,-88.0778,2.063,7.86,1111122 
DISL,ioos:station:DISL:DISL:1,2016-12-03T01:30:00Z,30.2513,-88.0778,2.096,7.45,1111122 
DISL,ioos:station:DISL:DISL:1,2016-12-03T02:00:00Z,30.2513,-88.0778,2.148,7.29,1111122 
DISL,ioos:station:DISL:DISL:1,2016-12-03T02:30:00Z,30.2513,-88.0778,2.177,7.19,1111122 
DISL,ioos:station:DISL:DISL:1,2016-12-03T03:00:00Z,30.2513,-88.0778,2.162,7.07,1111122 
DISL,ioos:station:DISL:DISL:1,2016-12-03T03:30:00Z,30.2513,-88.0778,2.201,7.2,1111122 
DISL,ioos:station:DISL:DISL:1,2016-12-03T04:00:00Z,30.2513,-88.0778,2.221,7.39,1111122 
DISL,ioos:station:DISL:DISL:1,2016-12-03T04:30:00Z,30.2513,-88.0778,2.26,7.19,1111122 
DISL,ioos:station:DISL:DISL:1,2016-12-03T05:00:00Z,30.2513,-88.0778,2.095,7.39,1111122 
DISL,ioos:station:DISL:DISL:1,2016-12-03T05:30:00Z,30.2513,-88.0778,2.166,8.27,1111122 
DISL,ioos:station:DISL:DISL:1,2016-12-03T06:30:00Z,30.2513,-88.0778,2.219,8.29,1111122 
DISL,ioos:station:DISL:DISL:1,2016-12-03T07:00:00Z,30.2513,-88.0778,2.225,7.65,1111122 
DISL,ioos:station:DISL:DISL:1,2016-12-03T07:30:00Z,30.2513,-88.0778,2.166,7.85,1111122 
DISL,ioos:station:DISL:DISL:1,2016-12-03T08:00:00Z,30.2513,-88.0778,2.16,7.98,1111122 
DISL,ioos:station:DISL:DISL:1,2016-12-03T08:30:00Z,30.2513,-88.0778,2.162,8.08,1111122 
DISL,ioos:station:DISL:DISL:1,2016-12-03T09:00:00Z,30.2513,-88.0778,2.112,8.14,1111122 
DISL,ioos:station:DISL:DISL:1,2016-12-03T09:30:00Z,30.2513,-88.0778,2.097,8.15,1111122 
DISL,ioos:station:DISL:DISL:1,2016-12-03T10:00:00Z,30.2513,-88.0778,2.041,8.11,1111122 
DISL,ioos:station:DISL:DISL:1,2016-12-03T10:30:00Z,30.2513,-88.0778,2.086,8.18,1111122 
DISL,ioos:station:DISL:DISL:1,2016-12-03T11:00:00Z,30.2513,-88.0778,2.096,8.19,1111122 
DISL,ioos:station:DISL:DISL:1,2016-12-03T11:30:00Z,30.2513,-88.0778,1.963,8.24,1111122 
DISL,ioos:station:DISL:DISL:1,2016-12-03T12:00:00Z,30.2513,-88.0778,1.986,8.27,1111122 
DISL,ioos:station:DISL:DISL:1,2016-12-03T12:30:00Z,30.2513,-88.0778,2.046,8.25,1111122 
DISL,ioos:station:DISL:DISL:1,2016-12-03T13:00:00Z,30.2513,-88.0778,1.957,8.24,1111122 
DISL,ioos:station:DISL:DISL:1,2016-12-03T13:30:00Z,30.2513,-88.0778,1.93,8.18,1111122 
DISL,ioos:station:DISL:DISL:1,2016-12-03T14:00:00Z,30.2513,-88.0778,1.906,8.22,1111122 
DISL,ioos:station:DISL:DISL:1,2016-12-03T14:30:00Z,30.2513,-88.0778,1.9,8.22,1111122 
DISL,ioos:station:DISL:DISL:1,2016-12-03T15:00:00Z,30.2513,-88.0778,1.869,8.24,1111122 
DISL,ioos:station:DISL:DISL:1,2016-12-03T15:30:00Z,30.2513,-88.0778,1.862,8.25,1111122 
DISL,ioos:station:DISL:DISL:1,2016-12-03T16:00:00Z,30.2513,-88.0778,1.8,8.22,1111122 
DISL,ioos:station:DISL:DISL:1,2016-12-03T16:30:00Z,30.2513,-88.0778,1.864,8.2,1111122 
DISL,ioos:station:DISL:DISL:1,2016-12-03T17:00:00Z,30.2513,-88.0778,1.797,8.21,1111122 
DISL,ioos:station:DISL:DISL:1,2016-12-03T17:30:00Z,30.2513,-88.0778,1.825,8.21,1111122 
DISL,ioos:station:DISL:DISL:1,2016-12-03T18:00:00Z,30.2513,-88.0778,1.835,8.22,1111122 
DISL,ioos:station:DISL:DISL:1,2016-12-03T18:30:00Z,30.2513,-88.0778,1.924,8.07,1111122 
DISL,ioos:station:DISL:DISL:1,2016-12-03T19:00:00Z,30.2513,-88.0778,1.857,8.12,1111122 
DISL,ioos:station:DISL:DISL:1,2016-12-03T19:30:00Z,30.2513,-88.0778,1.876,8.26,1111122 
DISL,ioos:station:DISL:DISL:1,2016-12-03T20:00:00Z,30.2513,-88.0778,1.883,8.28,1111122 
DISL,ioos:station:DISL:DISL:1,2016-12-03T20:30:00Z,30.2513,-88.0778,1.896,8.2,1111122 
DISL,ioos:station:DISL:DISL:1,2016-12-03T21:00:00Z,30.2513,-88.0778,1.927,8.27,1111122 
DISL,ioos:station:DISL:DISL:1,2016-12-03T21:30:00Z,30.2513,-88.0778,1.948,8.23,1111122 
DISL,ioos:station:DISL:DISL:1,2016-12-03T22:00:00Z,30.2513,-88.0778,1.946,8.19,1111122 
DISL,ioos:station:DISL:DISL:1,2016-12-03T22:30:00Z,30.2513,-88.0778,1.971,8.18,1111122 
DISL,ioos:station:DISL:DISL:1,2016-12-03T23:00:00Z,30.2513,-88.0778,1.988,8.17,1111122 
DISL,ioos:station:DISL:DISL:1,2016-12-03T23:30:00Z,30.2513,-88.0778,2.012,8.08,1111122 
DISL,ioos:station:DISL:DISL:1,2016-12-04T00:00:00Z,30.2513,-88.0778,2.024,7.9,1111122 
DISL,ioos:station:DISL:DISL:1,2016-12-04T00:30:00Z,30.2513,-88.0778,2.051,7.98,1111122 
DISL,ioos:station:DISL:DISL:1,2016-12-04T01:00:00Z,30.2513,-88.0778,2.031,7.97,1111122 
DISL,ioos:station:DISL:DISL:1,2016-12-04T01:30:00Z,30.2513,-88.0778,2.142,7.87,1111122 
DISL,ioos:station:DISL:DISL:1,2016-12-04T02:00:00Z,30.2513,-88.0778,2.259,7.76,1111122 
DISL,ioos:station:DISL:DISL:1,2016-12-04T02:30:00Z,30.2513,-88.0778,2.172,7.68,1111122 
DISL,ioos:station:DISL:DISL:1,2016-12-04T03:00:00Z,30.2513,-88.0778,2.309,7.64,1111122 
DISL,ioos:station:DISL:DISL:1,2016-12-04T03:30:00Z,30.2513,-88.0778,2.194,7.75,1111122 
DISL,ioos:station:DISL:DISL:1,2016-12-04T04:00:00Z,30.2513,-88.0778,2.237,7.73,1111122 
DISL,ioos:station:DISL:DISL:1,2016-12-04T04:30:00Z,30.2513,-88.0778,2.241,7.81,1111122 
DISL,ioos:station:DISL:DISL:1,2016-12-04T05:00:00Z,30.2513,-88.0778,2.266,7.87,1111122 
DISL,ioos:station:DISL:DISL:1,2016-12-04T05:30:00Z,30.2513,-88.0778,2.237,7.72,1111122 
DISL,ioos:station:DISL:DISL:1,2016-12-04T06:30:00Z,30.2513,-88.0778,2.279,7.56,1111122 
DISL,ioos:station:DISL:DISL:1,2016-12-04T07:00:00Z,30.2513,-88.0778,2.317,7.55,1111122 
DISL,ioos:station:DISL:DISL:1,2016-12-04T07:30:00Z,30.2513,-88.0778,2.332,7.56,1111122 
DISL,ioos:station:DISL:DISL:1,2016-12-04T08:00:00Z,30.2513,-88.0778,2.359,7.52,1111122 
DISL,ioos:station:DISL:DISL:1,2016-12-04T08:30:00Z,30.2513,-88.0778,2.386,7.49,1111122 
DISL,ioos:station:DISL:DISL:1,2016-12-04T09:00:00Z,30.2513,-88.0778,2.358,7.49,1111122 
DISL,ioos:station:DISL:DISL:1,2016-12-04T09:30:00Z,30.2513,-88.0778,2.349,7.51,1111122 
DISL,ioos:station:DISL:DISL:1,2016-12-04T10:00:00Z,30.2513,-88.0778,2.331,7.49,1111122 
DISL,ioos:station:DISL:DISL:1,2016-12-04T10:30:00Z,30.2513,-88.0778,2.338,7.52,1111122 
DISL,ioos:station:DISL:DISL:1,2016-12-04T11:00:00Z,30.2513,-88.0778,2.299,7.63,1111122 
DISL,ioos:station:DISL:DISL:1,2016-12-04T11:30:00Z,30.2513,-88.0778,2.266,7.65,1111122 
DISL,ioos:station:DISL:DISL:1,2016-12-04T12:00:00Z,30.2513,-88.0778,2.265,7.7,1111122 
DISL,ioos:station:DISL:DISL:1,2016-12-04T12:30:00Z,30.2513,-88.0778,2.231,7.69,1111122 
DISL,ioos:station:DISL:DISL:1,2016-12-04T13:00:00Z,30.2513,-88.0778,2.228,7.68,1111122 
DISL,ioos:station:DISL:DISL:1,2016-12-04T13:30:00Z,30.2513,-88.0778,2.271,7.72,1111122 
DISL,ioos:station:DISL:DISL:1,2016-12-04T14:00:00Z,30.2513,-88.0778,2.149,7.74,1111122 
DISL,ioos:station:DISL:DISL:1,2016-12-04T14:30:00Z,30.2513,-88.0778,2.135,7.77,1111122 
DISL,ioos:station:DISL:DISL:1,2016-12-04T15:00:00Z,30.2513,-88.0778,2.146,7.78,1111122 
DISL,ioos:station:DISL:DISL:1,2016-12-04T15:30:00Z,30.2513,-88.0778,2.128,7.77,1111122 
DISL,ioos:station:DISL:DISL:1,2016-12-04T16:00:00Z,30.2513,-88.0778,2.035,7.84,1111122 
DISL,ioos:station:DISL:DISL:1,2016-12-04T16:30:00Z,30.2513,-88.0778,2.097,7.85,1111122 
DISL,ioos:station:DISL:DISL:1,2016-12-04T17:00:00Z,30.2513,-88.0778,2.105,7.81,1111122 
DISL,ioos:station:DISL:DISL:1,2016-12-04T17:30:00Z,30.2513,-88.0778,2.124,7.71,1111122 
DISL,ioos:station:DISL:DISL:1,2016-12-04T18:00:00Z,30.2513,-88.0778,2.067,7.75,1111122 
DISL,ioos:station:DISL:DISL:1,2016-12-04T18:30:00Z,30.2513,-88.0778,2.081,7.75,1111122 
DISL,ioos:station:DISL:DISL:1,2016-12-04T19:00:00Z,30.2513,-88.0778,2.058,7.82,1111122 
DISL,ioos:station:DISL:DISL:1,2016-12-04T19:30:00Z,30.2513,-88.0778,2.074,7.9,1111122 
DISL,ioos:station:DISL:DISL:1,2016-12-04T20:00:00Z,30.2513,-88.0778,2.094,7.94,1111122 
DISL,ioos:station:DISL:DISL:1,2016-12-04T20:30:00Z,30.2513,-88.0778,2.093,7.89,1111122 
DISL,ioos:station:DISL:DISL:1,2016-12-04T21:00:00Z,30.2513,-88.0778,2.12,7.84,1111122 
DISL,ioos:station:DISL:DISL:1,2016-12-04T21:30:00Z,30.2513,-88.0778,2.122,7.8,1111122 
DISL,ioos:station:DISL:DISL:1,2016-12-04T22:00:00Z,30.2513,-88.0778,2.103,7.86,1111122 
DISL,ioos:station:DISL:DISL:1,2016-12-04T22:30:00Z,30.2513,-88.0778,2.17,7.85,1111122 
DISL,ioos:station:DISL:DISL:1,2016-12-04T23:00:00Z,30.2513,-88.0778,2.131,8.06,1111122 
DISL,ioos:station:DISL:DISL:1,2016-12-04T23:30:00Z,30.2513,-88.0778,2.186,7.89,1111122 
DISL,ioos:station:DISL:DISL:1,2016-12-05T00:00:00Z,30.2513,-88.0778,2.191,8.01,1111122 
DISL,ioos:station:DISL:DISL:1,2016-12-05T00:30:00Z,30.2513,-88.0778,2.215,7.99,1111122 
DISL,ioos:station:DISL:DISL:1,2016-12-05T01:00:00Z,30.2513,-88.0778,2.217,7.86,1111122 
DISL,ioos:station:DISL:DISL:1,2016-12-05T01:30:00Z,30.2513,-88.0778,2.206,7.79,1111122 
DISL,ioos:station:DISL:DISL:1,2016-12-05T02:00:00Z,30.2513,-88.0778,2.222,7.83,1111122 
DISL,ioos:station:DISL:DISL:1,2016-12-05T02:30:00Z,30.2513,-88.0778,2.212,7.79,1111122 
DISL,ioos:station:DISL:DISL:1,2016-12-05T03:00:00Z,30.2513,-88.0778,2.247,7.82,1111122 
DISL,ioos:station:DISL:DISL:1,2016-12-05T03:30:00Z,30.2513,-88.0778,2.248,7.98,1111122 
DISL,ioos:station:DISL:DISL:1,2016-12-05T04:00:00Z,30.2513,-88.0778,2.272,8.18,1111122 
DISL,ioos:station:DISL:DISL:1,2016-12-05T04:30:00Z,30.2513,-88.0778,2.278,7.81,1111122 
DISL,ioos:station:DISL:DISL:1,2016-12-05T05:00:00Z,30.2513,-88.0778,2.295,7.83,1111122 
DISL,ioos:station:DISL:DISL:1,2016-12-05T05:30:00Z,30.2513,-88.0778,2.308,7.76,1111122 
DISL,ioos:station:DISL:DISL:1,2016-12-05T06:30:00Z,30.2513,-88.0778,2.293,7.37,1111122 
DISL,ioos:station:DISL:DISL:1,2016-12-05T07:00:00Z,30.2513,-88.0778,2.351,7.48,1111122 
DISL,ioos:station:DISL:DISL:1,2016-12-05T07:30:00Z,30.2513,-88.0778,2.32,7.38,1111122 
DISL,ioos:station:DISL:DISL:1,2016-12-05T08:00:00Z,30.2513,-88.0778,2.335,7.29,1111122 
DISL,ioos:station:DISL:DISL:1,2016-12-05T08:30:00Z,30.2513,-88.0778,2.329,7.37,1111122 
DISL,ioos:station:DISL:DISL:1,2016-12-05T09:00:00Z,30.2513,-88.0778,2.35,7.51,1111122 
DISL,ioos:station:DISL:DISL:1,2016-12-05T09:30:00Z,30.2513,-88.0778,2.36,7.71,1111122 
DISL,ioos:station:DISL:DISL:1,2016-12-05T10:00:00Z,30.2513,-88.0778,2.35,7.54,1111122 
DISL,ioos:station:DISL:DISL:1,2016-12-05T10:30:00Z,30.2513,-88.0778,2.343,7.63,1111122 
DISL,ioos:station:DISL:DISL:1,2016-12-05T11:00:00Z,30.2513,-88.0778,2.335,7.74,1111122 
DISL,ioos:station:DISL:DISL:1,2016-12-05T11:30:00Z,30.2513,-88.0778,2.277,7.75,1111122 
DISL,ioos:station:DISL:DISL:1,2016-12-05T12:00:00Z,30.2513,-88.0778,2.238,8.0,1111122 
DISL,ioos:station:DISL:DISL:1,2016-12-05T12:30:00Z,30.2513,-88.0778,2.219,8.04,1111122 
DISL,ioos:station:DISL:DISL:1,2016-12-05T13:00:00Z,30.2513,-88.0778,2.195,8.12,1111122 
DISL,ioos:station:DISL:DISL:1,2016-12-05T13:30:00Z,30.2513,-88.0778,2.134,8.17,1111122 
DISL,ioos:station:DISL:DISL:1,2016-12-05T14:00:00Z,30.2513,-88.0778,2.1,8.21,1111122 
DISL,ioos:station:DISL:DISL:1,2016-12-05T14:30:00Z,30.2513,-88.0778,2.068,8.29,1111122 
DISL,ioos:station:DISL:DISL:1,2016-12-05T15:00:00Z,30.2513,-88.0778,2.07,8.34,1111122 
DISL,ioos:station:DISL:DISL:1,2016-12-05T15:30:00Z,30.2513,-88.0778,2.076,8.4,1111122 
DISL,ioos:station:DISL:DISL:1,2016-12-05T16:00:00Z,30.2513,-88.0778,1.74,8.46,1111122 
DISL,ioos:station:DISL:DISL:1,2016-12-05T16:30:00Z,30.2513,-88.0778,2.031,8.5,1111122 
DISL,ioos:station:DISL:DISL:1,2016-12-05T17:00:00Z,30.2513,-88.0778,2.03,8.54,1111122 
DISL,ioos:station:DISL:DISL:1,2016-12-05T17:30:00Z,30.2513,-88.0778,2.051,8.53,1111122 
DISL,ioos:station:DISL:DISL:1,2016-12-05T18:00:00Z,30.2513,-88.0778,2.033,8.52,1111122 
DISL,ioos:station:DISL:DISL:1,2016-12-05T18:30:00Z,30.2513,-88.0778,2.03,8.54,1111122 
DISL,ioos:station:DISL:DISL:1,2016-12-05T19:00:00Z,30.2513,-88.0778,2.091,8.46,1111122 
DISL,ioos:station:DISL:DISL:1,2016-12-05T19:30:00Z,30.2513,-88.0778,2.084,8.42,1111122 
DISL,ioos:station:DISL:DISL:1,2016-12-05T20:00:00Z,30.2513,-88.0778,2.094,8.17,1111122 
DISL,ioos:station:DISL:DISL:1,2016-12-05T20:30:00Z,30.2513,-88.0778,2.133,7.79,1111122 
DISL,ioos:station:DISL:DISL:1,2016-12-05T21:00:00Z,30.2513,-88.0778,2.144,7.93,1111122 
DISL,ioos:station:DISL:DISL:1,2016-12-05T21:30:00Z,30.2513,-88.0778,2.154,7.89,1111122 
DISL,ioos:station:DISL:DISL:1,2016-12-05T22:00:00Z,30.2513,-88.0778,2.285,8.22,1111122 
DISL,ioos:station:DISL:DISL:1,2016-12-05T22:30:00Z,30.2513,-88.0778,2.181,8.29,1111122 
DISL,ioos:station:DISL:DISL:1,2016-12-05T23:00:00Z,30.2513,-88.0778,2.176,8.2,1111122 
DISL,ioos:station:DISL:DISL:1,2016-12-05T23:30:00Z,30.2513,-88.0778,2.139,8.17,1111122 
DISL,ioos:station:DISL:DISL:1,2016-12-06T00:00:00Z,30.2513,-88.0778,2.166,8.16,1111122 
DISL,ioos:station:DISL:DISL:1,2016-12-06T00:30:00Z,30.2513,-88.0778,2.169,8.12,1111122 
DISL,ioos:station:DISL:DISL:1,2016-12-06T01:00:00Z,30.2513,-88.0778,2.06,8.15,1111122 
DISL,ioos:station:DISL:DISL:1,2016-12-06T01:30:00Z,30.2513,-88.0778,2.173,8.13,1111122 
DISL,ioos:station:DISL:DISL:1,2016-12-06T02:00:00Z,30.2513,-88.0778,2.179,8.09,1111122 
DISL,ioos:station:DISL:DISL:1,2016-12-06T02:30:00Z,30.2513,-88.0778,2.171,7.22,1111122 
DISL,ioos:station:DISL:DISL:1,2016-12-06T03:00:00Z,30.2513,-88.0778,2.196,7.27,1111122 
DISL,ioos:station:DISL:DISL:1,2016-12-06T03:30:00Z,30.2513,-88.0778,2.211,7.42,1111122 
DISL,ioos:station:DISL:DISL:1,2016-12-06T04:00:00Z,30.2513,-88.0778,2.284,7.45,1111122 
DISL,ioos:station:DISL:DISL:1,2016-12-06T04:30:00Z,30.2513,-88.0778,2.283,7.83,1111122 
DISL,ioos:station:DISL:DISL:1,2016-12-06T05:00:00Z,30.2513,-88.0778,2.312,7.94,1111122 
DISL,ioos:station:DISL:DISL:1,2016-12-06T05:30:00Z,30.2513,-88.0778,2.349,7.87,1111122 
DISL,ioos:station:DISL:DISL:1,2016-12-06T06:30:00Z,30.2513,-88.0778,2.426,7.87,1111122 
DISL,ioos:station:DISL:DISL:1,2016-12-06T07:00:00Z,30.2513,-88.0778,2.405,7.09,1111122 
DISL,ioos:station:DISL:DISL:1,2016-12-06T07:30:00Z,30.2513,-88.0778,2.417,7.86,1111122 
DISL,ioos:station:DISL:DISL:1,2016-12-06T08:00:00Z,30.2513,-88.0778,2.438,7.86,1111122 
DISL,ioos:station:DISL:DISL:1,2016-12-06T08:30:00Z,30.2513,-88.0778,2.461,7.8,1111122 
DISL,ioos:station:DISL:DISL:1,2016-12-06T09:00:00Z,30.2513,-88.0778,2.401,7.76,1111122 
DISL,ioos:station:DISL:DISL:1,2016-12-06T09:30:00Z,30.2513,-88.0778,2.414,7.59,1111122 
DISL,ioos:station:DISL:DISL:1,2016-12-06T10:00:00Z,30.2513,-88.0778,2.368,7.73,1111122 
DISL,ioos:station:DISL:DISL:1,2016-12-06T10:30:00Z,30.2513,-88.0778,2.358,7.74,1111122 
DISL,ioos:station:DISL:DISL:1,2016-12-06T11:00:00Z,30.2513,-88.0778,2.328,7.8,1111122 
DISL,ioos:station:DISL:DISL:1,2016-12-06T11:30:00Z,30.2513,-88.0778,2.297,7.82,1111122 
DISL,ioos:station:DISL:DISL:1,2016-12-06T12:00:00Z,30.2513,-88.0778,2.293,7.83,1111122 
DISL,ioos:station:DISL:DISL:1,2016-12-06T12:30:00Z,30.2513,-88.0778,2.244,7.87,1111122 
DISL,ioos:station:DISL:DISL:1,2016-12-06T13:00:00Z,30.2513,-88.0778,2.226,7.89,1111122 
DISL,ioos:station:DISL:DISL:1,2016-12-06T13:30:00Z,30.2513,-88.0778,2.276,7.91,1111122 
DISL,ioos:station:DISL:DISL:1,2016-12-06T14:00:00Z,30.2513,-88.0778,2.225,7.94,1111122 
DISL,ioos:station:DISL:DISL:1,2016-12-06T14:30:00Z,30.2513,-88.0778,2.216,7.94,1111122 
DISL,ioos:station:DISL:DISL:1,2016-12-06T15:00:00Z,30.2513,-88.0778,2.162,7.96,1111122 
DISL,ioos:station:DISL:DISL:1,2016-12-06T15:30:00Z,30.2513,-88.0778,2.126,7.97,1111122 
DISL,ioos:station:DISL:DISL:1,2016-12-06T16:00:00Z,30.2513,-88.0778,2.116,8.01,1111122 
DISL,ioos:station:DISL:DISL:1,2016-12-06T16:30:00Z,30.2513,-88.0778,2.079,8.39,1111122 
DISL,ioos:station:DISL:DISL:1,2016-12-06T17:00:00Z,30.2513,-88.0778,2.056,8.65,1111122 
DISL,ioos:station:DISL:DISL:1,2016-12-06T17:30:00Z,30.2513,-88.0778,2.048,8.84,1111122 
DISL,ioos:station:DISL:DISL:1,2016-12-06T18:00:00Z,30.2513,-88.0778,2.044,8.8,1111122 
DISL,ioos:station:DISL:DISL:1,2016-12-06T18:30:00Z,30.2513,-88.0778,2.022,8.97,1111122 